This is the latest recevied weather packets stored in our database for station/object JS2WAD-13. If no packets are shown the sender has not sent any weather packets the latest 10 day(s).
| Time | Temp. | Humidity | Pressure | Rain* | Wind** | Luminosity | Snow |
|---|---|---|---|---|---|---|---|
| 1778130677 | 28.33° C | 46% | 901.6 hPa | 0 mm | - | 118 W/m² | - |
| 1778130377 | 28.33° C | 47% | 901.5 hPa | 0 mm | - | 566 W/m² | - |
| 1778130077 | 28.33° C | 46% | 901.6 hPa | 0 mm | - | 874 W/m² | - |
| 1778129777 | 28.33° C | 46% | 901.7 hPa | 0 mm | - | 896 W/m² | - |
| 1778129477 | 28.33° C | 46% | 901.8 hPa | 0 mm | - | 902 W/m² | - |
| 1778129177 | 28.33° C | 46% | 902 hPa | 0 mm | - | 909 W/m² | - |
| 1778128877 | 28.33° C | 47% | 902.1 hPa | 0 mm | - | 937 W/m² | - |
| 1778128577 | 28.33° C | 47% | 902.1 hPa | 0 mm | - | 919 W/m² | - |
| 1778128277 | 27.78° C | 49% | 902.1 hPa | 0 mm | - | 928 W/m² | - |
| 1778127977 | 27.78° C | 48% | 901.9 hPa | 0 mm | - | 916 W/m² | - |
| 1778127677 | 27.22° C | 49% | 902.1 hPa | 0 mm | - | 907 W/m² | - |
| 1778127377 | 27.22° C | 48% | 902.2 hPa | 0 mm | - | 397 W/m² | - |
| 1778127077 | 27.78° C | 48% | 902.2 hPa | 0 mm | - | 95 W/m² | - |
| 1778126778 | 27.22° C | 49% | 902.1 hPa | 0 mm | - | 79 W/m² | - |
| 1778126477 | 27.22° C | 49% | 902 hPa | 0 mm | - | 805 W/m² | - |
| 1778126177 | 27.22° C | 49% | 902.2 hPa | 0 mm | - | 942 W/m² | - |
| 1778125877 | 26.67° C | 49% | 902.2 hPa | 0 mm | - | 970 W/m² | - |
| 1778125577 | 26.67° C | 50% | 902.7 hPa | 0 mm | - | 1002 W/m² | - |
| 1778125277 | 26.67° C | 50% | 902.7 hPa | 0 mm | - | 457 W/m² | - |
| 1778124977 | 26.67° C | 49% | 903 hPa | 0 mm | - | 471 W/m² | - |
| 1778124677 | 26.67° C | 48% | 903 hPa | 0 mm | - | 548 W/m² | - |
| 1778124377 | 26.67° C | 48% | 903.3 hPa | 0 mm | - | 394 W/m² | - |
| 1778124077 | 26.11° C | 50% | 903.2 hPa | 0 mm | - | 427 W/m² | - |
| 1778123778 | 26.11° C | 52% | 903.3 hPa | 0 mm | - | 519 W/m² | - |
| 1778123478 | 26.11° C | 52% | 903 hPa | 0 mm | - | 631 W/m² | - |
* Rain latest hour (hover to see other rain measurements)
** Current wind speed in m/s (hover to see current wind gust speed)